Overview Statistics Trail Chart Weather Telemetry Raw packets
 

This is the latest recevied weather packets stored in our database for station/object OE6JVE-13. If no packets are shown the sender has not sent any weather packets the latest 10 day(s).

<< 14 15 16 17 18 19 20 >>
Time Temp. Humidity Pressure Rain* Wind** Luminosity Snow
1788444092 27.78° C 43% 1010 hPa 0 mm - - -
1788443470 28.33° C 43% 1009.9 hPa 0 mm - - -
1788442878 29.44° C 38% 1009.8 hPa 0 mm - - -
1788438110 30.56° C 32% 1010 hPa 0 mm - - -
1788436848 29.44° C 35% 1010.4 hPa 0 mm - - -
1788436232 29.44° C 33% 1010.3 hPa 0 mm - - -
1788423106 20° C 82% 1013.6 hPa 0 mm - - -
1788422461 20° C 82% 1013.6 hPa 0 mm - - -
1788421388 19.44° C 81% 1013.7 hPa 0 mm - - -
1788420254 19.44° C 85% 1013.7 hPa 0 mm - - -
1788418271 18.33° C 97% 1013.8 hPa 0 mm - - -
1788417679 17.22° C 99% 1013.8 hPa 0 mm - - -
1788417074 17.22° C 99% 1013.7 hPa 0 mm - - -
1788416517 16.67° C 99% 1013.8 hPa 0 mm - - -
1788415250 16.11° C 99% 1013.6 hPa 0 mm - - -
1788414669 15.56° C 99% 1013.6 hPa 0 mm - - -
1788414164 15.56° C 99% 1013.7 hPa 0 mm - - -
1788412881 15° C 99% 1013.4 hPa 0 mm - - -
1788412240 14.44° C 99% 1013.3 hPa 0 mm - - -
1788411034 14.44° C 99% 1013.2 hPa 0 mm - - -
1788410442 14.44° C 98% 1013 hPa 0 mm - - -
1788409849 14.44° C 98% 1012.9 hPa 0 mm - - -
1788409257 14.44° C 98% 1013 hPa 0 mm - - -
1788408665 14.44° C 97% 1012.9 hPa 0 mm - - -
1788408073 15° C 97% 1012.8 hPa 0 mm - - -

* Rain latest hour (hover to see other rain measurements)
** Current wind speed in m/s (hover to see current wind gust speed)